Kirtland AFB, NM

10:37 PM MST on January 18, 2017 (GMT -0700)
Albuquerque International Sunport

Weather History for KABQ - September, 2013

Change the Weather History Date:

Saturday, September 14, 2013

  Actual Average Record
Temperature  
Mean Temperature 66 °F 70 °F  
Max Temperature 73 °F 82 °F 95 °F (1956)
Min Temperature 58 °F 59 °F 37 °F (1913)
Degree Days  
Heating Degree Days 0 0  
Month to date heating degree days 0 0  
Since 1 July heating degree days 0 0  
Cooling Degree Days 1 6  
Month to date cooling degree days 138 104  
Year to date cooling degree days 1513 1261  
Growing Degree Days 15 (Base 50)    
Moisture  
Dew Point 57 °F    
Average Humidity 70    
Maximum Humidity 87    
Minimum Humidity 53    
Precipitation  
Precipitation 1.22 in 0.04 in 1.22 in (2013)
Month to date precipitation 3.07 0.51  
Year to date precipitation 6.96 6.79  
Snow  
Snow 0.00 in - - ()
Month to date snowfall 0.0  
Since 1 July snowfall 0.0  
Since 1 September snowfall 0.0  
Snow Depth 0.00 in    
Sea Level Pressure  
Sea Level Pressure 30.00 in    
Wind  
Wind Speed 6 mph (South)    
Max Wind Speed 21 mph    
Max Gust Speed 25 mph    
Visibility 9 miles    
Events Rain , Thunderstorm    
T = Trace of Precipitation, MM = Missing Value Source: NWS Daily Summary

Daily Weather History Graph

Daily Weather History Graph

Search for Another Location

Airport or City:

Trip Planner

Search our weather history database for the weather conditions in past years. The results will help you decide how hot, cold, wet, or windy it might be!

Date:

Astronomy

Sep. 14, 2013 Rise Set
Actual Time 6:48 AM MDT 7:14 PM MDT
Civil Twilight 6:23 AM MDT 7:39 PM MDT
Nautical Twilight 5:53 AM MDT 8:09 PM MDT
Astronomical Twilight 5:23 AM MDT 8:39 PM MDT
Moon 3:49 PM MDT (9/14) 1:32 AM MDT (9/14)
Length of Visible Light 13h 16m
Length of Day
12h 25m
Waxing Gibbous, 73% of the Moon is Illuminated
Sep 14
Waxing Gibbous
Sep 19
Full
Sep 26
Last Quarter
Oct 4
New
Oct 11
First Quarter

Hourly Weather History & Observations

Time (MDT) Temp. Dew Point Humidity Pressure Visibility Wind Dir Wind Speed Gust Speed Precip Events Conditions
12:52 AM 64.9 °F 55.0 °F 70% 29.92 in 10.0 mi NE 4.6 mph - N/A   Overcast
1:52 AM 64.0 °F 55.9 °F 75% 29.90 in 10.0 mi North 5.8 mph - N/A   Overcast
2:04 AM 64.4 °F 55.4 °F 73% 30.10 in 10.0 mi NNW 4.6 mph - N/A Thunderstorm Thunderstorm
2:39 AM 62.6 °F 59.0 °F 88% 30.10 in 10.0 mi WNW 4.6 mph - 0.01 in   Overcast
2:52 AM 62.1 °F 57.9 °F 86% 29.91 in 10.0 mi Calm Calm - 0.01 in   Overcast
3:24 AM 62.6 °F 57.2 °F 82% 30.10 in 10.0 mi North 5.8 mph - N/A   Overcast
3:48 AM 62.6 °F 57.2 °F 82% 30.09 in 10.0 mi North 6.9 mph - 0.00 in   Overcast
3:52 AM 62.1 °F 57.9 °F 86% 29.90 in 10.0 mi North 5.8 mph - 0.00 in   Overcast
4:00 AM 62.6 °F 57.2 °F 82% 30.09 in 10.0 mi NNW 8.1 mph - 0.00 in Rain , Thunderstorm Light Rain
4:36 AM 60.8 °F 57.2 °F 88% 30.09 in 8.0 mi NNE 6.9 mph - 0.00 in Rain , Thunderstorm Light Rain
4:52 AM 61.0 °F 59.0 °F 93% 29.90 in 5.0 mi NNE 4.6 mph - 0.02 in Rain , Thunderstorm Thunderstorms and Rain
5:03 AM 60.8 °F 57.2 °F 88% 30.10 in 2.0 mi Calm Calm - 0.10 in Rain , Thunderstorm Heavy Thunderstorms and Rain
5:11 AM 60.8 °F 57.2 °F 88% 30.10 in 1.5 mi NNE 3.5 mph - 0.18 in Rain , Thunderstorm Heavy Thunderstorms and Rain
5:24 AM 60.8 °F 57.2 °F 88% 30.11 in 3.0 mi West 5.8 mph - 0.27 in Rain Heavy Rain
5:36 AM 59.0 °F 57.2 °F 94% 30.11 in 5.0 mi SW 6.9 mph - 0.31 in Rain Rain
5:52 AM 57.9 °F 55.9 °F 93% 29.93 in 10.0 mi SSW 4.6 mph - 0.32 in   Overcast
6:52 AM 59.0 °F 55.9 °F 90% 29.93 in 10.0 mi ESE 6.9 mph - N/A   Overcast
7:23 AM 60.8 °F 55.4 °F 82% 30.13 in 9.0 mi SE 8.1 mph - 0.00 in Rain Light Rain
7:42 AM 59.0 °F 55.4 °F 88% 30.13 in 7.0 mi SE 9.2 mph - 0.02 in Rain Light Rain
7:52 AM 60.1 °F 57.0 °F 90% 29.95 in 8.0 mi ESE 10.4 mph - 0.02 in Rain Light Rain
8:09 AM 60.8 °F 57.2 °F 88% 30.13 in 10.0 mi SE 5.8 mph - 0.00 in   Overcast
8:16 AM 60.8 °F 57.2 °F 88% 30.13 in 10.0 mi SE 8.1 mph - 0.00 in   Overcast
8:27 AM 60.8 °F 57.2 °F 88% 30.13 in 10.0 mi SE 5.8 mph - 0.00 in   Overcast
8:47 AM 60.8 °F 57.2 °F 88% 30.13 in 10.0 mi SSE 5.8 mph - 0.00 in Rain Light Rain
8:48 AM 60.1 °F 57.9 °F 93% 29.95 in 10.0 mi SSE 5.8 mph - 0.00 in Rain Light Rain
9:20 AM 60.8 °F 57.2 °F 88% 30.14 in 10.0 mi WSW 6.9 mph - 0.00 in   Mostly Cloudy
9:39 AM 60.8 °F 57.2 °F 88% 30.14 in 10.0 mi SSW 6.9 mph - 0.00 in   Mostly Cloudy
9:48 AM 60.8 °F 57.2 °F 88% 30.14 in 10.0 mi South 5.8 mph - 0.00 in   Mostly Cloudy
9:52 AM 62.1 °F 57.0 °F 84% 29.96 in 10.0 mi South 4.6 mph - 0.00 in   Mostly Cloudy
10:42 AM 62.6 °F 57.2 °F 82% 30.14 in 10.0 mi South 6.9 mph - N/A   Mostly Cloudy
10:52 AM 64.0 °F 57.0 °F 78% 29.96 in 10.0 mi South 8.1 mph - N/A   Mostly Cloudy
11:52 AM 64.9 °F 55.9 °F 73% 29.94 in 10.0 mi SE 3.5 mph - N/A   Mostly Cloudy
12:52 PM 66.0 °F 55.0 °F 68% 29.92 in 10.0 mi SW 4.6 mph - N/A   Mostly Cloudy
1:52 PM 69.1 °F 55.9 °F 63% 29.89 in 10.0 mi Variable 6.9 mph - N/A   Mostly Cloudy
2:52 PM 71.1 °F 54.0 °F 55% 29.85 in 10.0 mi South 11.5 mph - N/A   Mostly Cloudy
3:52 PM 73.0 °F 55.9 °F 55% 29.83 in 10.0 mi SSW 5.8 mph - N/A   Mostly Cloudy
4:25 PM 71.6 °F 55.4 °F 57% 30.04 in 10.0 mi SW 5.8 mph - N/A   Mostly Cloudy
4:52 PM 72.0 °F 55.9 °F 57% 29.84 in 10.0 mi WSW 5.8 mph - N/A   Mostly Cloudy
5:52 PM 72.0 °F 55.0 °F 55% 29.86 in 10.0 mi Calm Calm - N/A   Mostly Cloudy
6:52 PM 72.0 °F 55.0 °F 55% 29.85 in 10.0 mi Calm Calm - N/A   Mostly Cloudy
7:52 PM 70.0 °F 57.0 °F 63% 29.86 in 10.0 mi Calm Calm - N/A   Mostly Cloudy
8:52 PM 68.0 °F 57.9 °F 70% 29.89 in 10.0 mi NNE 3.5 mph - N/A   Scattered Clouds
9:29 PM 68.0 °F 57.2 °F 68% 30.09 in 10.0 mi North 4.6 mph - N/A Thunderstorm Thunderstorm
9:52 PM 68.0 °F 57.9 °F 70% 29.90 in 10.0 mi North 5.8 mph - N/A Thunderstorm Thunderstorm
10:50 PM 60.8 °F 57.2 °F 88% 30.13 in 3.0 mi WSW 16.1 mph 25.3 mph 0.10 in Rain , Thunderstorm Heavy Thunderstorms and Rain
10:52 PM 59.0 °F 57.0 °F 93% 29.96 in 3.0 mi WSW 15.0 mph 25.3 mph 0.17 in Rain , Thunderstorm Heavy Thunderstorms and Rain
11:32 PM 60.8 °F 55.4 °F 82% 30.11 in 10.0 mi East 10.4 mph - 0.53 in Rain , Thunderstorm Light Thunderstorms and Rain
11:52 PM 60.1 °F 55.0 °F 83% 29.96 in 10.0 mi North 11.5 mph - 0.55 in Rain , Thunderstorm Light Thunderstorms and Rain